Regional Weather Roundup
Issued by NWS Jackson, KY

Home | Current Version | Previous Version | Text Only | Print | Product List | Glossary Off
Versions: 1 2 3 4 5 6 7 8 9 10 11 12 13 14 15 16 17 18 19 20 21 22 23 24 25 26 27

000
ASUS43 KJKL 250710
RWRJKL

EAST KENTUCKY HOURLY WEATHER ROUNDUP
NATIONAL WEATHER SERVICE JACKSON KY
300 AM EDT THU MAY 25 2017

NOTE: "FAIR" INDICATES FEW OR NO CLOUDS BELOW 12,000 FEET WITH
NO SIGNIFICANT WEATHER AND/OR OBSTRUCTIONS TO VISIBILITY.

* THESE REPORTS ARE NOT UNDER NWS QUALITY CONTROL AND MAY NOT
  REPORT WEATHER SUCH AS PRECIPITATION AND FOG.

KYZ079-080-083-085-087-088-110-112-115-119-120-250800
...EASTERN KENTUCKY...

CITY           SKY/WX    TMP DP  RH WIND       PRES   REMARKS
JACKSON        CLOUDY    55  51  86 VRB3      29.51S
LONDON         CLOUDY    54  49  83 SW8       29.54S
SOMERSET*      CLOUDY    54  48  82 W6        29.55S
MONTICELLO*    MOCLDY    54  51  90 W13       29.56F
WILLIAMSBURG*  CLOUDY    52  50  93 SW3       29.55F
MIDDLESBORO*   CLEAR     51  49  93 CALM      29.56F
HARLAN APT*    CLOUDY    54  46  76 SW7       29.54F
PIKE CO APT*   CLOUDY    56  53  89 S5        29.51F
BIG SANDY APT* CLOUDY    58  52  79 SW8       29.50S
ASHLAND*       CLOUDY    61  55  82 SW7       29.44R
$$

KYZ035-036-041-042-044-050-067-078-099-250800
...CENTRAL KENTUCKY...

CITY           SKY/WX    TMP DP  RH WIND       PRES   REMARKS
MT STERLING*   CLOUDY    55  54  94 W9G21     29.49S
FLEMING/MASON* LGT RAIN  56  55  96 SW14G21   29.45R
DANVILLE*      CLOUDY    54  52  94 SW7       29.51S FOG
LEXINGTON      CLOUDY    56  53  90 SW13      29.47S
FRANKFORT      CLOUDY    58  53  84 SW13      29.45S
LOUISVILLE     LGT RAIN  59  57  93 SW9       29.46S FOG
LEBANON*       CLOUDY    55  55 100 SW7       29.50S FOG
GLASGOW*       CLOUDY    55  55 100 SW7       29.54S
BOWLING GREEN  CLOUDY    57  54  89 W8        29.55S
$$

KYZ091>093-OHZ055-061-077-WVZ005-015-034-035-042-250800
...SOUTHERN OHIO/WEST VIRGINIA...

CITY           SKY/WX    TMP DP  RH WIND       PRES   REMARKS
COVINGTON      LGT RAIN  59  58  96 SW6       29.39F
COLUMBUS       CLOUDY    63  59  87 SE12      29.38F
DAYTON         CLOUDY    59  58  96 SW6       29.36F
WILMINGTON     CLOUDY    59  59 100 SW8       29.37S
HUNTINGTON     CLOUDY    59  53  80 S10       29.46S
CHARLESTON     CLOUDY    60  56  86 W5        29.47S
PINEVILLE*     CLOUDY    58  57  97 MISG      29.56S
BECKLEY        LGT RAIN  56  54  93 S3        29.52S
BLUEFIELD      MOCLDY    53  50  89 CALM      29.54F
LOGAN CO APT*    N/A     57  54  88 CALM      29.49F
$$

VAZ002-007-008-TNZ017-027-036-066-071-250800
...SOUTHWEST VIRGINIA/EAST TENNESSEE...

CITY           SKY/WX    TMP DP  RH WIND       PRES   REMARKS
WISE*          MOCLDY    50  50 100 SW5       29.56S
JONESVILLE*      N/A     54  50  87 CALM      29.57S
ABINGDON*      CLOUDY    57  55  92 W8        29.55F
BRISTOL        CLOUDY    56  54  93 SW6       29.56S
MORRISTOWN*    SUNNY     54  50  87 W8        29.56S
SEVIERVILLE*   SUNNY     52  48  87 S5        29.57F
KNOXVILLE      CLEAR     53  49  86 S7        29.57F
LAFOLLETTE*    SUNNY     48  48 100 CALM      29.59F
OAK RIDGE      CLEAR     52  48  86 CALM      29.59S
CROSSVILLE     CLEAR     48  47  96 CALM      29.60S
NASHVILLE      PTCLDY    55  53  93 SW5       29.60S
$$

...KEY TO REMARKS...
VSB - VISIBILITY IN MILES
WCI - WIND CHILL INDEX
HX  - HEAT INDEX

$$




USA.gov is the U.S. government's official web portal to all federal, state and local government web resources and services.